DLH914 EDDF-EGLL

Flight info

Callsign DLH914
Flight time 1h 13m
Altitude 36000
Route OBOKA2E/07C OBOKA Z29 TORNU DCT ABNED L980 LOGAN
Aircraft A21N/M-SDE2E3FGIJ1LORWXYZ/HB1

Departure

Time 2026-05-07 19:01
Airport Frankfurt Main Airport (EDDF)

Arrival

Time 2026-05-07 20:14
Airport London Heathrow Airport (EGLL)
Time Latitude Longitude Altitude Speed Heading
2026-05-07 18:12 50.04421 8.56275 365 ft 0 kts 165°
2026-05-07 18:46 50.04425 8.56273 363 ft 3 kts 165°
2026-05-07 18:47 50.04442 8.56266 366 ft 4 kts 165°
2026-05-07 18:47 50.04465 8.56256 362 ft 2 kts 163°
2026-05-07 18:47 50.04482 8.56257 366 ft 4 kts 231°
2026-05-07 18:47 50.04488 8.56269 362 ft 4 kts 249°
2026-05-07 18:48 50.04482 8.56243 363 ft 4 kts 249°
2026-05-07 18:48 50.04473 8.56204 362 ft 4 kts 249°
2026-05-07 18:48 50.04463 8.56164 363 ft 4 kts 249°
2026-05-07 18:48 50.04454 8.56125 364 ft 3 kts 250°
2026-05-07 18:49 50.04452 8.56118 363 ft 0 kts 250°
2026-05-07 18:52 50.04450 8.56110 366 ft 2 kts 250°
2026-05-07 18:52 50.04442 8.56076 362 ft 5 kts 247°
2026-05-07 18:52 50.04407 8.56033 362 ft 9 kts 180°
2026-05-07 18:52 50.04345 8.56058 364 ft 9 kts 162°
2026-05-07 18:53 50.04293 8.56145 364 ft 15 kts 82°
2026-05-07 18:53 50.04233 8.56245 363 ft 15 kts 159°
2026-05-07 18:53 50.04146 8.56285 364 ft 13 kts 197°
2026-05-07 18:53 50.04098 8.56158 362 ft 15 kts 246°
2026-05-07 18:54 50.04058 8.55997 360 ft 17 kts 251°
2026-05-07 18:54 50.04020 8.55829 363 ft 16 kts 249°
2026-05-07 18:54 50.03978 8.55655 362 ft 18 kts 249°
2026-05-07 18:54 50.03932 8.55463 364 ft 20 kts 250°
2026-05-07 18:55 50.03892 8.55291 366 ft 15 kts 250°
2026-05-07 18:55 50.03854 8.55131 363 ft 17 kts 249°
2026-05-07 18:55 50.03809 8.54952 361 ft 19 kts 249°
2026-05-07 18:55 50.03763 8.54755 364 ft 20 kts 249°
2026-05-07 18:56 50.03716 8.54560 363 ft 15 kts 250°
2026-05-07 18:56 50.03697 8.54478 361 ft 7 kts 250°
2026-05-07 18:56 50.03680 8.54409 363 ft 10 kts 249°
2026-05-07 18:56 50.03638 8.54314 369 ft 12 kts 198°
2026-05-07 18:57 50.03582 8.54325 369 ft 5 kts 159°
2026-05-07 18:57 50.03581 8.54325 369 ft 0 kts 160°
2026-05-07 18:58 50.03543 8.54347 366 ft 10 kts 159°
2026-05-07 18:59 50.03494 8.54428 362 ft 12 kts 83°
2026-05-07 18:59 50.03505 8.54478 365 ft 0 kts 70°
2026-05-07 19:00 50.03520 8.54541 362 ft 29 kts 70°
2026-05-07 19:00 50.03679 8.55210 362 ft 101 kts 70°
2026-05-07 19:00 50.03994 8.56517 365 ft 154 kts 69°
2026-05-07 19:00 50.04379 8.58160 770 ft 164 kts 70°
2026-05-07 19:01 50.04783 8.59840 1433 ft 166 kts 68°
2026-05-07 19:01 50.05270 8.61572 1908 ft 183 kts 67°
2026-05-07 19:01 50.06015 8.63247 2425 ft 201 kts 35°
2026-05-07 19:01 50.07398 8.63846 3135 ft 214 kts 359°
2026-05-07 19:02 50.08874 8.63668 4070 ft 213 kts 354°
2026-05-07 19:02 50.10368 8.63481 4641 ft 223 kts 355°
2026-05-07 19:02 50.12039 8.63325 4963 ft 256 kts 356°
2026-05-07 19:02 50.13844 8.63189 5048 ft 260 kts 356°
2026-05-07 19:03 50.15654 8.63060 5076 ft 260 kts 356°
2026-05-07 19:03 50.17463 8.62933 5080 ft 261 kts 356°
2026-05-07 19:03 50.19273 8.62806 5092 ft 261 kts 356°
2026-05-07 19:03 50.21086 8.62685 5093 ft 261 kts 356°
2026-05-07 19:04 50.22896 8.62564 5670 ft 263 kts 356°
2026-05-07 19:04 50.24740 8.62439 6451 ft 267 kts 356°
2026-05-07 19:04 50.26614 8.62316 6849 ft 270 kts 356°
2026-05-07 19:04 50.28496 8.62190 7013 ft 271 kts 356°
2026-05-07 19:05 50.30374 8.61954 7073 ft 271 kts 348°
2026-05-07 19:05 50.32100 8.60865 7088 ft 269 kts 324°
2026-05-07 19:05 50.33373 8.58769 7091 ft 267 kts 300°
2026-05-07 19:05 50.34084 8.56089 7092 ft 267 kts 288°
2026-05-07 19:06 50.34637 8.53318 7095 ft 267 kts 287°
2026-05-07 19:06 50.35769 8.47772 7271 ft 266 kts 288°
2026-05-07 19:06 50.36356 8.44988 8200 ft 272 kts 289°
2026-05-07 19:07 50.36957 8.42163 9247 ft 276 kts 289°
2026-05-07 19:07 50.37562 8.39274 10237 ft 282 kts 287°
2026-05-07 19:07 50.37870 8.36157 10866 ft 301 kts 270°
2026-05-07 19:07 50.37487 8.32855 11538 ft 315 kts 254°
2026-05-07 19:08 50.36818 8.29555 12451 ft 321 kts 252°
2026-05-07 19:08 50.36122 8.26209 13417 ft 325 kts 252°
2026-05-07 19:08 50.35426 8.22819 14327 ft 328 kts 252°
2026-05-07 19:08 50.34731 8.19394 15212 ft 332 kts 253°
2026-05-07 19:09 50.34033 8.15934 16080 ft 335 kts 253°
2026-05-07 19:09 50.33329 8.12440 16924 ft 339 kts 253°
2026-05-07 19:09 50.32624 8.08942 17764 ft 343 kts 253°
2026-05-07 19:09 50.31902 8.05364 18566 ft 347 kts 253°
2026-05-07 19:10 50.31172 8.01744 19287 ft 351 kts 253°
2026-05-07 19:10 50.30436 7.98094 20015 ft 354 kts 253°
2026-05-07 19:10 50.29882 7.94320 20725 ft 357 kts 263°
2026-05-07 19:10 50.29830 7.90433 21433 ft 361 kts 275°
2026-05-07 19:11 50.30342 7.86578 22112 ft 365 kts 287°
2026-05-07 19:11 50.31326 7.82886 22800 ft 369 kts 293°
2026-05-07 19:11 50.32422 7.79235 23473 ft 373 kts 294°
2026-05-07 19:11 50.33526 7.75528 24057 ft 377 kts 293°
2026-05-07 19:12 50.34690 7.71839 24639 ft 381 kts 298°
2026-05-07 19:12 50.36232 7.68441 25201 ft 386 kts 310°
2026-05-07 19:12 50.38216 7.65584 25748 ft 391 kts 322°
2026-05-07 19:12 50.40572 7.63413 26312 ft 396 kts 333°
2026-05-07 19:13 50.43107 7.61674 26840 ft 399 kts 335°
2026-05-07 19:13 50.45670 7.59966 27358 ft 402 kts 335°
2026-05-07 19:13 50.48251 7.58223 27871 ft 405 kts 335°
2026-05-07 19:13 50.50842 7.56455 28365 ft 407 kts 335°
2026-05-07 19:14 50.53442 7.54662 28847 ft 410 kts 334°
2026-05-07 19:14 50.56025 7.52732 29319 ft 412 kts 329°
2026-05-07 19:14 50.58464 7.50350 29787 ft 414 kts 326°
2026-05-07 19:14 50.60877 7.47861 30225 ft 416 kts 325°
2026-05-07 19:15 50.63301 7.45345 30592 ft 419 kts 325°
2026-05-07 19:15 50.65708 7.42837 30942 ft 422 kts 325°
2026-05-07 19:15 50.68167 7.40286 31280 ft 425 kts 325°
2026-05-07 19:15 50.70688 7.37693 31638 ft 428 kts 325°
2026-05-07 19:16 50.73064 7.34959 31972 ft 429 kts 317°
2026-05-07 19:16 50.75080 7.31522 32373 ft 427 kts 305°
2026-05-07 19:16 50.76607 7.27523 32818 ft 424 kts 296°
2026-05-07 19:16 50.77948 7.23377 33270 ft 423 kts 295°
2026-05-07 19:17 50.79271 7.19222 33713 ft 423 kts 295°
2026-05-07 19:17 50.80598 7.15082 34128 ft 422 kts 296°
2026-05-07 19:17 50.81929 7.10952 34452 ft 422 kts 296°
2026-05-07 19:17 50.83265 7.06819 34768 ft 422 kts 296°
2026-05-07 19:18 50.84603 7.02679 35091 ft 422 kts 295°
2026-05-07 19:18 50.85935 6.98554 35404 ft 421 kts 295°
2026-05-07 19:18 50.87269 6.94419 35696 ft 421 kts 295°
2026-05-07 19:18 50.88596 6.90292 35972 ft 422 kts 295°
2026-05-07 19:19 50.89929 6.86139 36106 ft 423 kts 295°
2026-05-07 19:19 50.91263 6.81981 36114 ft 423 kts 295°
2026-05-07 19:19 50.93923 6.73684 36086 ft 422 kts 295°
2026-05-07 19:20 50.96571 6.65378 36085 ft 422 kts 295°
2026-05-07 19:20 50.99215 6.57062 36083 ft 422 kts 295°
2026-05-07 19:21 51.01852 6.48742 36080 ft 421 kts 295°
2026-05-07 19:21 51.04477 6.40422 36083 ft 421 kts 295°
2026-05-07 19:22 51.07099 6.32093 36080 ft 421 kts 294°
2026-05-07 19:22 51.09712 6.23768 36080 ft 421 kts 294°
2026-05-07 19:23 51.12319 6.15421 36088 ft 421 kts 294°
2026-05-07 19:23 51.14540 6.06844 36080 ft 418 kts 284°
2026-05-07 19:24 51.16000 5.97880 36079 ft 418 kts 283°
2026-05-07 19:24 51.17425 5.88965 36079 ft 418 kts 283°
2026-05-07 19:25 51.19160 5.80126 36088 ft 420 kts 290°
2026-05-07 19:25 51.21428 5.71525 36081 ft 421 kts 291°
2026-05-07 19:26 51.23706 5.62922 36081 ft 421 kts 291°
2026-05-07 19:26 51.25962 5.54306 36083 ft 421 kts 291°
2026-05-07 19:27 51.28214 5.45678 36089 ft 421 kts 290°
2026-05-07 19:27 51.30460 5.37043 36086 ft 421 kts 290°
2026-05-07 19:28 51.32709 5.28406 36089 ft 421 kts 291°
2026-05-07 19:28 51.34958 5.19781 36087 ft 420 kts 290°
2026-05-07 19:29 51.37184 5.11132 36083 ft 420 kts 290°
2026-05-07 19:29 51.39400 5.02498 36083 ft 419 kts 290°
2026-05-07 19:30 51.41606 4.93866 36084 ft 419 kts 290°
2026-05-07 19:30 51.43801 4.85227 36083 ft 419 kts 290°
2026-05-07 19:31 51.45995 4.76587 36092 ft 419 kts 290°
2026-05-07 19:31 51.48181 4.67944 36104 ft 418 kts 290°
2026-05-07 19:32 51.50358 4.59274 36085 ft 420 kts 290°
2026-05-07 19:32 51.52540 4.50578 36079 ft 420 kts 290°
2026-05-07 19:33 51.54711 4.41880 36079 ft 420 kts 290°
2026-05-07 19:33 51.56877 4.33171 36082 ft 420 kts 290°
2026-05-07 19:34 51.58668 4.25933 36079 ft 420 kts 290°
2026-05-07 19:34 51.60819 4.17209 36084 ft 420 kts 290°
2026-05-07 19:35 51.62966 4.08478 36080 ft 419 kts 290°
2026-05-07 19:35 51.65107 3.99745 36082 ft 420 kts 289°
2026-05-07 19:36 51.67241 3.91003 36087 ft 419 kts 289°
2026-05-07 19:36 51.69370 3.82253 36093 ft 419 kts 289°
2026-05-07 19:37 51.71480 3.73509 36090 ft 418 kts 289°
2026-05-07 19:37 51.73589 3.64759 36090 ft 418 kts 289°
2026-05-07 19:38 51.75693 3.56005 36102 ft 418 kts 289°
2026-05-07 19:38 51.77794 3.47231 36091 ft 418 kts 289°
2026-05-07 19:39 51.79861 3.38553 36094 ft 410 kts 289°
2026-05-07 19:39 51.81911 3.29904 36106 ft 419 kts 289°
2026-05-07 19:40 51.83977 3.21027 36103 ft 419 kts 286°
2026-05-07 19:40 51.84608 3.16448 36100 ft 416 kts 274°
2026-05-07 19:40 51.84630 3.11856 36105 ft 415 kts 264°
2026-05-07 19:41 51.84002 3.02587 36105 ft 414 kts 262°
2026-05-07 19:41 51.83358 2.93351 35990 ft 413 kts 263°
2026-05-07 19:42 51.83050 2.88745 35714 ft 411 kts 263°
2026-05-07 19:42 51.82745 2.84175 35440 ft 408 kts 263°
2026-05-07 19:42 51.82443 2.79639 35125 ft 404 kts 263°
2026-05-07 19:42 51.82142 2.75150 34795 ft 400 kts 263°
2026-05-07 19:43 51.81841 2.70690 34462 ft 397 kts 263°
2026-05-07 19:43 51.81541 2.66279 34130 ft 393 kts 263°
2026-05-07 19:43 51.81241 2.61911 33741 ft 390 kts 263°
2026-05-07 19:43 51.80941 2.57573 33352 ft 387 kts 263°
2026-05-07 19:44 51.80642 2.53274 32970 ft 384 kts 263°
2026-05-07 19:44 51.80343 2.48997 32593 ft 382 kts 263°
2026-05-07 19:44 51.80045 2.44749 32230 ft 379 kts 263°
2026-05-07 19:44 51.79746 2.40526 31885 ft 377 kts 263°
2026-05-07 19:45 51.79448 2.36338 31525 ft 374 kts 263°
2026-05-07 19:45 51.79151 2.32185 31160 ft 371 kts 263°
2026-05-07 19:45 51.78856 2.28057 30811 ft 369 kts 263°
2026-05-07 19:45 51.78563 2.23961 30448 ft 366 kts 263°
2026-05-07 19:46 51.78305 2.19890 30093 ft 363 kts 264°
2026-05-07 19:46 51.78069 2.15839 29690 ft 361 kts 264°
2026-05-07 19:46 51.77835 2.11819 29290 ft 359 kts 264°
2026-05-07 19:46 51.77601 2.07826 28889 ft 357 kts 264°
2026-05-07 19:47 51.77366 2.03848 28500 ft 355 kts 264°
2026-05-07 19:47 51.77130 1.99895 28114 ft 353 kts 264°
2026-05-07 19:47 51.76895 1.95969 27727 ft 351 kts 264°
2026-05-07 19:47 51.76659 1.92047 27356 ft 349 kts 264°
2026-05-07 19:48 51.76423 1.88163 26993 ft 347 kts 264°
2026-05-07 19:48 51.76187 1.84286 26625 ft 346 kts 264°
2026-05-07 19:48 51.75950 1.80434 26265 ft 344 kts 264°
2026-05-07 19:48 51.75713 1.76600 25917 ft 343 kts 264°
2026-05-07 19:49 51.75475 1.72778 25628 ft 342 kts 264°
2026-05-07 19:49 51.75238 1.68967 25370 ft 341 kts 264°
2026-05-07 19:49 51.75004 1.65223 25136 ft 340 kts 264°
2026-05-07 19:49 51.74765 1.61434 25069 ft 340 kts 263°
2026-05-07 19:50 51.74527 1.57672 24770 ft 336 kts 263°
2026-05-07 19:50 51.74286 1.53897 24012 ft 342 kts 263°
2026-05-07 19:50 51.74038 1.50026 23088 ft 351 kts 263°
2026-05-07 19:50 51.73785 1.46097 22190 ft 353 kts 263°
2026-05-07 19:51 51.73532 1.42176 21428 ft 350 kts 263°
2026-05-07 19:51 51.73280 1.38304 20860 ft 345 kts 263°
2026-05-07 19:51 51.73030 1.34464 20312 ft 343 kts 263°
2026-05-07 19:51 51.72779 1.30643 19764 ft 342 kts 263°
2026-05-07 19:52 51.72529 1.26854 19307 ft 338 kts 263°
2026-05-07 19:52 51.72281 1.23118 18888 ft 333 kts 263°
2026-05-07 19:52 51.72035 1.19431 18511 ft 327 kts 263°
2026-05-07 19:52 51.71794 1.15817 18119 ft 322 kts 263°
2026-05-07 19:53 51.71555 1.12264 17730 ft 316 kts 263°
2026-05-07 19:53 51.71319 1.08770 17375 ft 310 kts 263°
2026-05-07 19:53 51.71084 1.05311 17025 ft 310 kts 262°
2026-05-07 19:53 51.70849 1.01873 16699 ft 308 kts 262°
2026-05-07 19:54 51.70614 0.98436 16388 ft 307 kts 262°
2026-05-07 19:54 51.70380 0.95028 16091 ft 306 kts 262°
2026-05-07 19:54 51.70145 0.91623 15727 ft 306 kts 262°
2026-05-07 19:54 51.69908 0.88208 15325 ft 308 kts 262°
2026-05-07 19:55 51.69666 0.84765 14920 ft 310 kts 262°
2026-05-07 19:55 51.69421 0.81303 14512 ft 312 kts 262°
2026-05-07 19:55 51.69178 0.77823 14124 ft 314 kts 262°
2026-05-07 19:55 51.68933 0.74315 13706 ft 315 kts 262°
2026-05-07 19:56 51.68686 0.70807 13270 ft 314 kts 262°
2026-05-07 19:56 51.68441 0.67346 12869 ft 309 kts 262°
2026-05-07 19:56 51.68197 0.63929 12478 ft 304 kts 262°
2026-05-07 19:56 51.67956 0.60565 12098 ft 300 kts 262°
2026-05-07 19:57 51.67716 0.57251 11731 ft 296 kts 262°
2026-05-07 19:57 51.67480 0.53978 11371 ft 292 kts 262°
2026-05-07 19:57 51.67245 0.50751 11017 ft 288 kts 262°
2026-05-07 19:57 51.67013 0.47568 10672 ft 285 kts 262°
2026-05-07 19:58 51.66783 0.44418 10328 ft 282 kts 262°
2026-05-07 19:58 51.66553 0.41281 10008 ft 280 kts 262°
2026-05-07 19:58 51.66327 0.38218 9807 ft 271 kts 262°
2026-05-07 19:58 51.66108 0.35267 9610 ft 259 kts 262°
2026-05-07 19:59 51.65892 0.32371 8984 ft 276 kts 262°
2026-05-07 19:59 51.65630 0.29052 8634 ft 316 kts 262°
2026-05-07 19:59 51.65335 0.25458 8324 ft 327 kts 261°
2026-05-07 19:59 51.65046 0.21816 8183 ft 329 kts 263°
2026-05-07 20:00 51.64770 0.18156 8047 ft 328 kts 262°
2026-05-07 20:00 51.64449 0.14508 8051 ft 330 kts 261°
2026-05-07 20:00 51.64219 0.10842 8064 ft 329 kts 265°
2026-05-07 20:00 51.64073 0.07166 8072 ft 329 kts 265°
2026-05-07 20:01 51.63943 0.03483 8080 ft 328 kts 266°
2026-05-07 20:01 51.63815 -0.00187 8067 ft 329 kts 266°
2026-05-07 20:01 51.63680 -0.03858 8061 ft 328 kts 266°
2026-05-07 20:01 51.63537 -0.07524 8060 ft 328 kts 266°
2026-05-07 20:02 51.63394 -0.11152 7775 ft 322 kts 266°
2026-05-07 20:02 51.63249 -0.14769 7269 ft 325 kts 266°
2026-05-07 20:02 51.63099 -0.18399 7059 ft 324 kts 266°
2026-05-07 20:02 51.62948 -0.22056 7032 ft 324 kts 266°
2026-05-07 20:03 51.62797 -0.25628 7040 ft 324 kts 266°
2026-05-07 20:03 51.62643 -0.29243 7053 ft 324 kts 266°
2026-05-07 20:03 51.62487 -0.32913 7056 ft 325 kts 266°
2026-05-07 20:03 51.62335 -0.36488 7080 ft 324 kts 266°
2026-05-07 20:04 51.62182 -0.40106 7083 ft 324 kts 266°
2026-05-07 20:04 51.62030 -0.43716 7084 ft 324 kts 266°
2026-05-07 20:04 51.61877 -0.47317 7086 ft 318 kts 266°
2026-05-07 20:04 51.61727 -0.50811 7075 ft 299 kts 266°
2026-05-07 20:05 51.61458 -0.54061 6828 ft 290 kts 255°
2026-05-07 20:05 51.60882 -0.57069 6497 ft 279 kts 251°
2026-05-07 20:05 51.60268 -0.59945 6189 ft 264 kts 251°
2026-05-07 20:05 51.59668 -0.62717 5961 ft 255 kts 251°
2026-05-07 20:06 51.59102 -0.65346 5718 ft 249 kts 251°
2026-05-07 20:06 51.58542 -0.67957 5459 ft 244 kts 251°
2026-05-07 20:06 51.57997 -0.70518 5197 ft 240 kts 251°
2026-05-07 20:06 51.57461 -0.73032 4935 ft 236 kts 250°
2026-05-07 20:07 51.56936 -0.75527 4600 ft 236 kts 251°
2026-05-07 20:07 51.56373 -0.78005 4244 ft 236 kts 241°
2026-05-07 20:07 51.55308 -0.79909 4008 ft 225 kts 210°
2026-05-07 20:07 51.53906 -0.80634 3971 ft 202 kts 184°
2026-05-07 20:08 51.52572 -0.80763 4019 ft 188 kts 181°
2026-05-07 20:08 51.51265 -0.80836 4025 ft 188 kts 178°
2026-05-07 20:08 51.50057 -0.80194 4006 ft 184 kts 142°
2026-05-07 20:08 51.49254 -0.78630 3990 ft 179 kts 122°
2026-05-07 20:09 51.48605 -0.76937 3651 ft 179 kts 121°
2026-05-07 20:09 51.47993 -0.75193 3330 ft 181 kts 111°
2026-05-07 20:09 51.47726 -0.73226 3114 ft 181 kts 96°
2026-05-07 20:10 51.47672 -0.69195 2716 ft 181 kts 91°
2026-05-07 20:10 51.47680 -0.67258 2477 ft 167 kts 91°
2026-05-07 20:10 51.47686 -0.65449 2230 ft 160 kts 91°
2026-05-07 20:10 51.47692 -0.63665 2018 ft 160 kts 91°
2026-05-07 20:11 51.47699 -0.61872 1807 ft 161 kts 91°
2026-05-07 20:11 51.47705 -0.60071 1586 ft 162 kts 91°
2026-05-07 20:11 51.47715 -0.58283 1354 ft 152 kts 91°
2026-05-07 20:11 51.47721 -0.56680 1072 ft 139 kts 91°
2026-05-07 20:12 51.47710 -0.55156 919 ft 134 kts 93°
2026-05-07 20:12 51.47719 -0.53672 706 ft 132 kts 90°
2026-05-07 20:12 51.47739 -0.52241 559 ft 123 kts 92°
2026-05-07 20:12 51.47742 -0.50882 413 ft 122 kts 91°
2026-05-07 20:13 51.47747 -0.49498 265 ft 125 kts 91°
2026-05-07 20:13 51.47756 -0.48085 109 ft 126 kts 91°
2026-05-07 20:13 51.47759 -0.46813 95 ft 93 kts 90°
2026-05-07 20:13 51.47759 -0.46056 91 ft 51 kts 90°
2026-05-07 20:14 51.47760 -0.45594 91 ft 24 kts 91°
2026-05-07 20:14 51.47684 -0.45475 91 ft 17 kts 176°
2026-05-07 20:14 51.47614 -0.45467 92 ft 0 kts 175°
2026-05-07 20:14 51.47613 -0.45467 92 ft 0 kts 175°
2026-05-07 20:16 51.47604 -0.45466 92 ft 3 kts 178°
2026-05-07 20:16 51.47574 -0.45467 92 ft 6 kts 182°
2026-05-07 20:16 51.47528 -0.45447 94 ft 8 kts 147°
2026-05-07 20:16 51.47508 -0.45354 94 ft 11 kts 89°
2026-05-07 20:17 51.47509 -0.45223 96 ft 13 kts 89°
2026-05-07 20:17 51.47510 -0.45066 96 ft 15 kts 89°
2026-05-07 20:17 51.47510 -0.44899 96 ft 14 kts 93°
2026-05-07 20:17 51.47509 -0.44726 94 ft 17 kts 89°
2026-05-07 20:18 51.47490 -0.44584 95 ft 10 kts 141°
2026-05-07 20:18 51.47412 -0.44562 92 ft 13 kts 180°
2026-05-07 20:18 51.47317 -0.44562 92 ft 15 kts 179°
2026-05-07 20:18 51.47206 -0.44561 92 ft 17 kts 180°
2026-05-07 20:19 51.47125 -0.44559 92 ft 18 kts 177°
2026-05-07 20:19 51.47027 -0.44559 92 ft 3 kts 179°
2026-05-07 20:19 51.47002 -0.44583 93 ft 6 kts 246°
2026-05-07 20:19 51.46997 -0.44639 92 ft 1 kts 269°
2026-05-07 20:20 51.46996 -0.44649 92 ft 0 kts 269°
2026-05-07 20:20 51.46996 -0.44667 92 ft 3 kts 269°
2026-05-07 20:20 51.46996 -0.44679 92 ft 0 kts 269°
2026-05-07 20:20 51.46996 -0.44681 92 ft 0 kts 269°